Hourly Data Report for May 20, 2012

All times are specified in Local Standard Time (LST). Add 1 hour to adjust for Daylight Saving Time where and when it is observed.

GANDER INTL A
NEWFOUNDLAND

48°56'13.000" N
54°34'05.000" W
151.20 m
8401703
71803
YQX

Download Data

Hourly Data (May 2012)
Hourly Data Report for May 20, 2012
Temp Definition
°C
Dew Point Temp Definition
°C
Rel Hum Definition
%
Wind Dir Definition
10's deg

Wind Spd Definition
km/h
Visibility Definition
km
Stn Press Definition
kPa
Hmdx Definition


Wind Chill Definition


Weather Definition


TIME
00:30 Legend Double Dagger 6.0 -0.3 64 29 22 10.0 99.60     LegendNANA
01:30 Legend Double Dagger 5.3 -0.1 68 28 17 10.0 99.65     LegendNANA
02:30 Legend Double Dagger 4.9 -0.1 70 27 16 10.0 99.67     Mostly Cloudy
03:30 Legend Double Dagger 4.1 -0.3 73 28 16 10.0 99.71     LegendNANA
04:30 Legend Double Dagger 3.9 0.2 77 26 13 10.0 99.80     LegendNANA
05:30 Legend Double Dagger 4.2 0.2 75 27 17 10.0 99.87     Mostly Cloudy
06:30 Legend Double Dagger 5.5 0.1 68 31 24 10.0 99.94     LegendNANA
07:30 Legend Double Dagger 6.6 -0.6 60 34 27 10.0 99.95     LegendNANA
08:30 Legend Double Dagger 7.0 0.9 65 33 19 10.0 100.03     Mostly Cloudy
09:30 Legend Double Dagger 7.6 0.1 59 34 27 10.0 100.10     LegendNANA
10:30 Legend Double Dagger 8.2 -0.3 55 32 28 10.0 100.12     LegendNANA
11:30 Legend Double Dagger 6.8 -0.2 61 33 28 10.0 100.21     Mostly Cloudy
12:30 Legend Double Dagger 7.9 0.4 59 36 23 10.0 100.26     LegendNANA
13:30 Legend Double Dagger 7.3 0.5 62 33 28 10.0 100.33     Rain Showers
14:30 Legend Double Dagger 8.1 0.1 57 33 28 10.0 100.35     Mostly Cloudy
15:30 Legend Double Dagger 8.2 0.0 56 33 19 10.0 100.37     LegendNANA
16:30 Legend Double Dagger 8.3 -1.0 52 34 26 10.0 100.42     LegendNANA
17:30 Legend Double Dagger 7.9 -0.1 57 34 20 10.0 100.47     Mostly Cloudy
18:30 Legend Double Dagger 7.2 -0.7 57 32 20 10.0 100.53     LegendNANA
19:30 Legend Double Dagger 6.5 0.2 64 33 12 10.0 100.60     LegendNANA
20:30 Legend Double Dagger 5.9 0.1 66 33 9 10.0 100.66     Mostly Cloudy
21:30 Legend Double Dagger 5.5 0.7 71 31 9 10.0 100.66     LegendNANA
22:30 Legend Double Dagger 5.1 1.2 76 2 10 10.0 100.69     LegendNANA
23:30 Legend Double Dagger 3.5 0.7 82 3 6 10.0 100.74     Mostly Cloudy

Notes on Data Quality.

Legend

  • E = Estimated
  • M = Missing
  • NA = Not Available
  • ‡ = Partner data that is not subject to review by the National Climate Archives
Date modified: